Погода в Василевичи

Погода в Василевичи : погода сейчас, прогноз погоды и архив. Всё, что Вы хотите узнать о погоде в Василевичи!

Хотите узнать прогноз погоды в Василевичи? Тогда Вам сюда: Погода в Василевичи

Поиск расширенной информации на нашем сайте:

Другие новости

Новости СМИ2

Главная страница сайта

Новости сайта

03.07.2017

Напоминаем, что на нашем специализированном сайте Метеоцентр.Азия вы можете получить высокодетализированные автоматические прогнозы погоды по пунктам России, СНГ и мира в авиационном формате (включающие направление и скорость ветра, видимость, явления погоды, количество и форму облачности, нижнюю и верхнюю границу облачности).


Погода в Василевичи - сегодня

Время (UTC), дата Ветер
(°,м/с) 
Видим.   Явления Облачность Т
(°С)
Тd
(°С)
f(%) Тe
(°С)
Pmin
(гПа)
dP
(гПа)
Po
(мм)
O2
(г/м3)
Тmin Tmax R s Состояние
почвы
21 13.10.18 тихо ()   4000 м  дымка  ясно 
+1.9 +0.6 91 +2  1033.4  761  305           
00 14.10.18 тихо ()   4000 м  дымка  ясно 
+0.1 -0.6 95 1033.8  0.3  762  307           
06 14.10.18 тихо ()   10 км    3/0 верхняя 
[Ci fib]
+3.4 +0.4 81 +3  1033.4  -0.2  762  303  -1.6         
09 14.10.18 тихо ()   20000 м    10/0 верхняя 
[Cs]
+16.2 +4.5 46 +16  1032.8  0.3  762  289           
12 14.10.18 360 (С) 20000 м    9/0 верхняя 
[Cs]
+18.7 +1.6 32 +20  1031.4  -1.2  761  287           
15 14.10.18 тихо ()   20000 м    4/0 верхняя 
[Ci fib]
+14.4 +2.5 45 +14  1030.5  -1.2  760  291           
18 14.10.18 тихо ()   4000 м  дымка  ясно 
+5.3 +3.2 86 +5  1031.2  0.1  760  300    +20.1       
21 14.10.18 тихо ()   4000 м  дымка  ясно 
+2.2 +1.4 94 +2  1031.7  0.3  760  304           
00 15.10.18 тихо ()   4000 м  дымка  ясно 
+0.3 -0.2 96 1031.9  0.1  760  306           
06 15.10.18 тихо ()   10 км    9/0 верхняя 
[Ci fib]
+4.5 +1.3 80 +5  1032  0.4  761  301  -1.8         
09 15.10.18 тихо ()   20000 м    6/0 верхняя 
[Ci fib]
+16.1 +3.2 42 +16  1031.2  761  289           
12 15.10.18 190 (Ю) 20000 м    8/0 верхняя 
[Ci fib]
+19.1 +3.2 35 +21  1029.8  -1.2  760  286           
15 15.10.18 тихо ()   20000 м    8/0 верхняя 
[Ci fib]
+14 +3.9 51 +14  1029.3  -0.8  759  290           
18 15.10.18 тихо ()   10 км    3/0 верхняя 
[Ci fib]
+6.2 +4.1 86 +6  1029.7  -0.1  759  298    +19.7       
21 15.10.18 тихо ()   4000 м  дымка  ясно 
+3.2 +2.3 94 +3  1029.9  759  302           
00 16.10.18 тихо ()   4000 м  дымка  ясно 
+1.4 +0.9 96 +1  1029.6  -0.4  759  304           
06 16.10.18 тихо ()   10 км    ясно 
+5.9 +4 88 +6  1029.5  -0.1  759  299  -0.1         
09 16.10.18 тихо ()   10 км    ясно 
+18.2 +8.3 52 +18  1028.3  -0.4  759  285           
12 16.10.18 220 (ЮЗ) 20000 м    ясно 
+21.8 +8.2 42 +22  1027  -1  758  281           
15 16.10.18 тихо ()   10 км    ясно 
+17.4 +8.8 57 +17  1026.5  -0.8  757  285           
18 16.10.18 тихо ()   10 км    ясно 
+11 +8.2 83 +11  1027.2  0.3  757  292    +22       
21 16.10.18 тихо ()   4000 м  дымка  ясно 
+7.6 +6.6 93 +8  1027.4  -0.1  757  296           
00 17.10.18 тихо ()   4000 м  дымка  ясно 
+5.5 +4.9 96 +6  1027.6  0.1  757  298           
06 17.10.18 тихо ()   4000 м  дымка  ясно 
+7 +5.1 88 +7  1027.9  0.3  758  297  +3.3         
09 17.10.18 180 (Ю) 10 км    ясно 
+18.7 +9.2 54 +20  1027.2  0.1  758  284           
Время (UTC), дата Ветер
(°,м/с) 
Видим.   Явления Облачность Т
(°С)
Тd
(°С)
f(%) Тe
(°С)
Pmin
(гПа)
dP
(гПа)
Po
(мм)
O2
(г/м3)
Тmin Tmax R s Состояние
почвы

Для получения пояснительной информации подведите курсор к названию столбца.

ПОГОДА в Василевичи - архив

Всё, что Вы хотите узнать о погоде в Василевичи - удобно и подробно!

Выберите нужную дату (начиная с 1 января 2015* года) и нажмите кнопку "Найти".
Будут отображены архивные сводки погоды по пункту Василевичи, начиная с указанной даты.


Отображать данные в формате CSV (для использования в таблицах Excel)


Внимание! Наш архив погоды предназначен исключительно для личного некоммерческого использования в познавательных целях. Если Вам необходимы официальные справки о состоянии погоды (для производственных, юридических, коммерческих и т.п. целей), обращайтесь в органы Росгидромета.

*Примечание: данная дата относится к архиву по метеостанциям СССР (Россия, СНГ, Балтия).
Архив по метеостанциям Зарубежной Европы и Азии (кроме Китая) хранится 10 дней, по другим регионам земного шара (Китай, Африка, Америка, Австралия, Океания) - 1 день.

Василевичи - район местоположения метеостанции


Название, широта, долгота, высота метеостанции:
Василевичи 52.2°ш. 29.8°д. 142 м над ур. моря [Беларусь]

Дополнительная информация

В oтличие oт бoльшинства пoгoдных сайтoв мы публикуем пoдрoбную метеoинфoрмацию в детальнoм прoфессиoнальнoм фoрмате.

Характеристики температуры и влажнoсти вoздуха измеряются на высoте 2 м в тени вдали oт зданий и деревьев.
Скoрoсть ветра измеряется на высoте 10 м (на урoвне рoста челoвека скoрoсть ветра ниже в 1.5-2 раза). Если метеoстанция нахoдится в гoрoде или в лесу, тo скoрoсть ветра занижена на 2-4 м/с пo сравнению с oткрытым местoм. Скoрoсть ветра над акватoриями крупных рек и oзёр, а также на вершинах хoлмoв на 2-5 м/с выше, чем в oбычных услoвиях.
Атмoсфернoе давление в разных тoчках местнoсти мoжет значительнo oтличаться oт давления на метеoстанции, в зависимoсти oт услoвий рельефа (при пoдъёме на 10 м давление пoнижается примернo на 1 мм рт.ст.).